[[{"header":{"parameterUnit":"m.s-1","parameterCategory":2,"la1":30.2991,"la2":30.254,"lo1":-89.0895,"lo2":-89.0444,"dy":0.0017,"dx":0.0017,"nx":28,"ny":28,"refTime":"2023-06-18T21:00:00:Z","depth":"0","parameterNumber":2,"parameterNumberName":"U-component_of_CURRENTS"},"data":[0,0,0,0,0,0,0,0,0,0,0,0,0,0,0,0,0,0,0,0,0,0,0,0,0,0,0,0,0,0,0,0,0,0,0,0,0,0,0,0,0,0,0,0,0,0,0,0,0,0,0,0,0,0,0,0,0,0,0.1688,0.169,0,0.1877,0.1879,0.188,0.1891,0.1889,0.1888,0.1886,0.2045,0.2051,0.2057,0,0,0,0,0,0,0,0,0,0,0,0,0,0.1482,0.1485,0.1687,0.169,0.1693,0.1877,0.1879,0.1881,0.1891,0.1889,0.1887,0.1886,0.2043,0.205,0.2057,0,0,0,0,0,0,0,0,0,0,0,0,0,0.1605,0.1485,0.1687,0.1725,0.1731,0.1876,0.1879,0.1881,0.1892,0.1889,0.1887,0.1885,0.2041,0.205,0.2058,0.2158,0,0,0.2084,0.2088,0,0,0,0,0,0,0,0,0.1598,0.1611,0.1717,0.1723,0.173,0.1864,0.1865,0.1975,0.1892,0.1824,0.1886,0.1883,0.1988,0.2001,0.2033,0.2166,0.2172,0.2085,0.209,0.2094,0.2096,0,0,0,0,0,0,0,0.1589,0.1604,0.1756,0.172,0.1728,0.1785,0.1797,0.1886,0.1911,0.183,0.1832,0.1865,0.199,0.2024,0.2036,0.2175,0.2085,0.2092,0.2098,0.2101,0.2435,0.2439,0,0,0,0,0,0,0.1574,0.1596,0.175,0.1762,0.1664,0.179,0.1804,0.1818,0.1911,0.1925,0.1867,0.1865,0.2011,0.2026,0.2042,0.2176,0.2094,0.2102,0.2107,0.2432,0.2436,0.244,0,0,0,0,0,0,0.1569,0.1585,0.1742,0.169,0.1714,0.1796,0.1812,0.1823,0.1858,0.1941,0.1952,0.189,0.201,0.203,0.213,0.2181,0.2106,0.2113,0.2427,0.2433,0.2438,0.2438,0,0,0,0,0,0,0.1562,0.1582,0.1593,0.1688,0.1717,0.1855,0.1815,0.1829,0.1885,0.1884,0.1966,0.1978,0.2009,0.2117,0.2138,0.2192,0.212,0.2422,0.243,0.2436,0.2433,0.2443,0.2451,0,0,0,0,0,0.1553,0.159,0.1591,0.1611,0.1726,0.1859,0.188,0.1925,0.1889,0.1938,0.1972,0.1975,0.2177,0.2127,0.2151,0.2208,0.2419,0.2428,0.2436,0.2429,0.2441,0.2451,0,0,0,0,0,0,0.1516,0.1598,0.1601,0.166,0.176,0.1863,0.1927,0.1933,0.2,0.1992,0.2023,0.2042,0.2147,0.2193,0.2136,0.2331,0.2301,0.2314,0.2288,0.23,0.2308,0.2277,0.2127,0,0,0,0,0,0.1511,0.1547,0.1651,0.1701,0.176,0.1836,0.1892,0.1924,0.1997,0.2021,0.207,0.2134,0.2208,0.2258,0.2338,0.2451,0.2408,0.2509,0.2518,0.2524,0.252,0.2502,0.2506,0.2468,0.2468,0.2468,0,0,0.1504,0.1562,0.1577,0.1695,0.1775,0.1864,0.1864,0.1971,0.2021,0.2034,0.2118,0.217,0.2245,0.2358,0.2412,0.2398,0.2509,0.2535,0.254,0.2532,0.2511,0.2513,0.2515,0.2474,0.2472,0.2472,0,0,0.1549,0.1577,0.164,0.1728,0.1861,0.1905,0.1933,0.2047,0.2082,0.2182,0.2189,0.2271,0.2395,0.2456,0.2498,0.2617,0.2551,0.2648,0.2674,0.2656,0.2656,0.2657,0.256,0.2552,0.2658,0.2658,0.2658,0,0.1538,0.1626,0.1687,0.1791,0.1857,0.1916,0.2005,0.2066,0.2182,0.2228,0.2216,0.2386,0.2444,0.2562,0.2588,0.2635,0.2569,0.2613,0.2658,0.2658,0.2658,0.256,0.255,0.2659,0.2658,0.2658,0.2658,0,0.1637,0.1717,0.1783,0.1893,0.1967,0.2072,0.2156,0.2223,0.2248,0.2303,0.2429,0.2504,0.2591,0.2639,0.2641,0.2702,0.2631,0.2654,0.2606,0.266,0.2555,0.2544,0.266,0.266,0.2659,0.2659,0,0,0.1587,0.1801,0.1822,0.189,0.203,0.2097,0.2192,0.2307,0.2339,0.2459,0.2511,0.2659,0.2669,0.2718,0.2747,0.2745,0.2672,0.2684,0.2683,0.2542,0.2543,0.2492,0.2475,0.2672,0.2671,0.2671,0.2448,0,0.1653,0.1832,0.1914,0.2047,0.2145,0.2219,0.2284,0.2377,0.2436,0.2498,0.2604,0.2661,0.2707,0.2711,0.2733,0.2686,0.2653,0.2725,0.2552,0.2546,0.2458,0.2467,0.2532,0.234,0.2438,0.2436,0.2435,0,0.1719,0.1832,0.1983,0.2122,0.2167,0.2217,0.2301,0.2374,0.248,0.2524,0.2617,0.2656,0.2709,0.2705,0.2669,0.2692,0.261,0.2572,0.2563,0.251,0.248,0.2319,0.2317,0.2379,0.2419,0.242,0.2421,0,0.1653,0.1863,0.1968,0.2028,0.2194,0.2237,0.2281,0.238,0.2424,0.2502,0.2504,0.2611,0.2593,0.2578,0.2525,0.2558,0.2421,0.2465,0.2347,0.2338,0.2363,0.2358,0.2371,0.2405,0.2406,0.2406,0.2407,0,0.1697,0.1774,0.1939,0.2005,0.2077,0.2181,0.2226,0.2297,0.2358,0.2379,0.2479,0.2477,0.2546,0.2502,0.2473,0.2362,0.2378,0.2329,0.2292,0.2363,0.2362,0.2395,0.2399,0.2398,0.24,0.2401,0.2403,0,0.1649,0.1768,0.188,0.2033,0.2064,0.2097,0.2168,0.2187,0.2242,0.2249,0.2253,0.2326,0.2277,0.2318,0.225,0.2251,0.2136,0.2127,0.2168,0.2143,0.2134,0.2135,0.1815,0.1774,0.1968,0.1966,0.1964,0,0.1657,0.1718,0.186,0.1886,0.1957,0.201,0.2029,0.2115,0.2118,0.2147,0.2125,0.2108,0.2104,0.2012,0.2052,0.1997,0.198,0.1959,0.2088,0.2124,0.2098,0.1926,0.1905,0.2087,0.2086,0.2085,0.2085,0,0.1655,0.1686,0.1775,0.1818,0.1844,0.1886,0.1909,0.1895,0.1959,0.196,0.1924,0.1922,0.1913,0.1955,0.1918,0.1895,0.1937,0.194,0.2002,0.2205,0.1993,0.1941,0.2181,0.2079,0.2079,0.208,0.208,0.208,0.1605,0.164,0.1713,0.174,0.1755,0.1734,0.1718,0.1732,0.1722,0.1718,0.1751,0.177,0.1936,0.1954,0.1894,0.196,0.1828,0.2001,0.1987,0.1796,0.1809,0.1988,0.1848,0.1848,0.1847,0.1847,0.1846,0,0.1562,0.1594,0.1617,0.1636,0.1595,0.1642,0.1621,0.159,0.154,0.162,0.1622,0.1808,0.1898,0.2005,0.2141,0.2096,0.1963,0.2045,0.1924,0.1899,0.2124,0.2203,0.2108,0.2108,0.2108,0.2107,0.2107,0.2107,0.1542,0.1552,0.1566,0.1481,0.1469,0.1413,0.1387,0.1364,0.1417,0.1485,0.1616,0.1722,0.1987,0.2215,0.2287,0.2228,0.2098,0.1938,0.1862,0.2218,0.2218,0.2217,0.2299,0.2225,0.2225,0.1634,0.163,0.1628]},{"header":{"parameterUnit":"m.s-1","parameterCategory":2,"la1":30.2991,"la2":30.254,"lo1":-89.0895,"lo2":-89.0444,"dy":0.0017,"dx":0.0017,"nx":28,"ny":28,"refTime":"2023-06-18T21:00:00:Z","depth":"0","parameterNumber":3,"parameterNumberName":"V-component_of_CURRENTS"},"data":[0,0,0,0,0,0,0,0,0,0,0,0,0,0,0,0,0,0,0,0,0,0,0,0,0,0,0,0,0,0,0,0,0,0,0,0,0,0,0,0,0,0,0,0,0,0,0,0,0,0,0,0,0,0,0,0,0,0,-0.008,-0.0082,0,-0.0202,-0.0203,-0.0203,-0.0221,-0.0221,-0.0221,-0.022,-0.0096,-0.0093,-0.009,0,0,0,0,0,0,0,0,0,0,0,0,0,0.0068,0.0066,-0.008,-0.0082,-0.0085,-0.0202,-0.0203,-0.0204,-0.0221,-0.0221,-0.022,-0.022,-0.0097,-0.0094,-0.009,0,0,0,0,0,0,0,0,0,0,0,0,0,-0.0011,0.0066,-0.0079,-0.0114,-0.0119,-0.0202,-0.0203,-0.0204,-0.0221,-0.0221,-0.022,-0.022,-0.0098,-0.0094,-0.0089,-0.007,0,0,-0.0076,-0.0074,0,0,0,0,0,0,0,0,-0.0006,-0.0015,-0.0107,-0.0112,-0.0118,-0.0204,-0.0106,-0.015,-0.0221,-0.0173,-0.022,-0.022,-0.0116,-0.011,-0.0124,-0.0064,-0.0059,-0.0075,-0.0072,-0.007,-0.0069,0,0,0,0,0,0,0,-0.0,-0.001,-0.0119,-0.0109,-0.0116,-0.0149,-0.0158,-0.0115,-0.0133,-0.0177,-0.0181,-0.0209,-0.0115,-0.0129,-0.0121,-0.0057,-0.0075,-0.0071,-0.0068,-0.0067,0.0147,0.015,0,0,0,0,0,0,-0.0001,-0.0005,-0.0115,-0.0124,-0.007,-0.0152,-0.0162,-0.0169,-0.0139,-0.0139,-0.0209,-0.021,-0.0137,-0.0126,-0.0116,-0.0004,-0.007,-0.0066,-0.0064,0.0144,0.0148,0.0151,0,0,0,0,0,0,0.0003,-0.0009,-0.011,-0.0075,-0.0092,-0.0155,-0.0164,-0.0172,-0.0186,-0.0169,-0.0161,-0.0216,-0.0136,-0.0122,-0.004,-0.0002,-0.0064,-0.006,0.0141,0.0145,0.0149,0.0166,0,0,0,0,0,0,0.0009,-0.0006,-0.0006,-0.0075,-0.0094,-0.0146,-0.0165,-0.0175,-0.0209,-0.021,-0.0171,-0.016,-0.0135,-0.0047,-0.0036,0.0003,-0.0056,0.0137,0.0143,0.0148,0.0162,0.017,0.0178,0,0,0,0,0,0.0015,0.0002,-0.0005,-0.0019,-0.0093,-0.0147,-0.0157,-0.0197,-0.0209,-0.0207,-0.016,-0.0161,-0.0004,-0.0041,-0.0029,0.0012,0.0134,0.0141,0.0147,0.0158,0.0168,0.0177,0,0,0,0,0,0,0.006,-0.0004,-0.0012,-0.0043,-0.0083,-0.0153,-0.0173,-0.0197,-0.0169,-0.0157,-0.0128,-0.0112,-0.0025,-0.0001,-0.0044,0.0096,0.0067,0.0076,0.0071,0.0081,0.0089,0.0099,-0.0053,0,0,0,0,0,0.007,0.0052,-0.001,-0.0032,-0.0054,-0.0109,-0.0137,-0.0159,-0.0158,-0.015,-0.0115,-0.0057,0.0009,0.0048,0.0104,0.0175,0.0157,0.0215,0.0223,0.0229,0.0251,0.0248,0.0256,0.0173,0.0173,0.0172,0,0,0.008,0.004,0.0031,-0.0023,-0.006,-0.0063,-0.0122,-0.0161,-0.0128,-0.0133,-0.0057,-0.003,0.0036,0.0122,0.0162,0.0147,0.024,0.0238,0.0242,0.0261,0.0255,0.0263,0.0269,0.0177,0.0176,0.0176,0,0,0.0081,0.0059,0.0044,0.0023,-0.0034,-0.0046,-0.0054,-0.0099,-0.0082,-0.0025,-0.0004,0.0053,0.0139,0.0196,0.0237,0.0329,0.028,0.0339,0.0389,0.0385,0.0391,0.0395,0.035,0.0351,0.0344,0.0344,0.0344,0,0.0094,0.0082,0.0032,0.0018,0.0018,-0.0027,-0.0016,-0.0004,-0.0002,0.0039,0.0018,0.0146,0.0186,0.0301,0.0332,0.0346,0.031,0.0336,0.039,0.0395,0.0399,0.0352,0.0353,0.0346,0.0346,0.0346,0.0346,0,0.0093,0.0093,0.008,0.0078,0.0077,0.0073,0.0081,0.0114,0.013,0.0146,0.0241,0.0276,0.0352,0.0368,0.0379,0.0448,0.0397,0.0389,0.0349,0.0408,0.0355,0.0355,0.0348,0.0348,0.0347,0.0347,0,0,0.0103,0.0087,0.0087,0.0117,0.0116,0.0122,0.0195,0.0253,0.0311,0.0332,0.0402,0.0496,0.0477,0.0523,0.0523,0.0519,0.0502,0.0463,0.0461,0.039,0.0446,0.0427,0.0424,0.0477,0.0478,0.0479,0.0382,0,0.0126,0.0137,0.013,0.0195,0.0215,0.0236,0.0313,0.037,0.0413,0.0475,0.0508,0.057,0.0549,0.0558,0.0562,0.0526,0.0509,0.0527,0.0427,0.0425,0.0378,0.0428,0.0453,0.0371,0.0382,0.0382,0.0382,0,0.0134,0.0152,0.02,0.0281,0.0293,0.0341,0.0463,0.0519,0.0601,0.0622,0.067,0.067,0.0707,0.0647,0.0618,0.0617,0.0544,0.0493,0.0488,0.0473,0.0409,0.0327,0.037,0.0315,0.0381,0.0381,0.0381,0,0.0173,0.0214,0.0272,0.0291,0.0364,0.0423,0.0482,0.057,0.0632,0.0696,0.071,0.0757,0.0749,0.0698,0.0615,0.06,0.0535,0.0505,0.042,0.0414,0.0425,0.042,0.0389,0.0472,0.0472,0.0472,0.0473,0,0.0205,0.0254,0.0298,0.0329,0.0442,0.0469,0.0586,0.0643,0.0705,0.0772,0.0773,0.0795,0.0752,0.0713,0.0632,0.0534,0.0553,0.0443,0.0406,0.043,0.0428,0.0372,0.0343,0.0469,0.0469,0.047,0.0471,0,0.0228,0.0246,0.0329,0.0417,0.0452,0.0536,0.0636,0.0709,0.0741,0.0809,0.0817,0.0819,0.0762,0.0704,0.0608,0.0548,0.0436,0.0412,0.0426,0.0395,0.0275,0.0247,0.019,0.0206,0.0307,0.0306,0.0305,0,0.0244,0.0274,0.0384,0.0447,0.0489,0.0595,0.0664,0.073,0.0786,0.0821,0.0846,0.0807,0.08,0.0661,0.0553,0.0427,0.0386,0.0352,0.036,0.029,0.0231,0.0211,0.023,0.0354,0.0354,0.0354,0.0354,0,0.0293,0.0322,0.0391,0.0495,0.0584,0.0682,0.077,0.0814,0.0871,0.0908,0.0926,0.0913,0.0778,0.069,0.0523,0.0427,0.035,0.0343,0.0284,0.0293,0.0259,0.025,0.0359,0.0353,0.0353,0.0353,0.0353,0.0353,0.0335,0.0398,0.0469,0.0575,0.0662,0.0749,0.0829,0.0894,0.0972,0.1045,0.1009,0.1048,0.09,0.0681,0.0499,0.028,0.0297,0.024,0.0211,0.0196,0.0236,0.0328,0.0281,0.028,0.028,0.028,0.028,0,0.0397,0.0453,0.0545,0.0665,0.074,0.0777,0.0888,0.0966,0.105,0.116,0.12,0.1243,0.0983,0.0748,0.0421,0.0218,0.0167,0.0129,0.0119,0.0147,0.0236,0.0264,0.0196,0.0197,0.0197,0.0197,0.0197,0.0197,0.0436,0.0526,0.0567,0.0703,0.0769,0.0881,0.0944,0.1063,0.1188,0.1395,0.1537,0.1625,0.1564,0.0754,0.0276,0.0143,0.0058,-0.0005,-0.002,0.0035,0.0044,0.0052,0.0073,-0.0033,-0.0033,-0.0061,-0.0062,-0.0062]}],[{"header":{"parameterUnit":"m.s-1","parameterCategory":2,"la1":30.2991,"la2":30.254,"lo1":-89.0895,"lo2":-89.0444,"dy":0.0017,"dx":0.0017,"nx":28,"ny":28,"refTime":"2023-06-18T21:00:00:Z","depth":"2","parameterNumber":2,"parameterNumberName":"U-component_of_CURRENTS"},"data":[0,0,0,0,0,0,0,0,0,0,0,0,0,0,0,0,0,0,0,0,0,0,0,0,0,0,0,0,0,0,0,0,0,0,0,0,0,0,0,0,0,0,0,0,0,0,0,0,0,0,0,0,0,0,0,0,0,0,0.1527,0.1529,0,0.1651,0.1653,0.1654,0.1655,0.1654,0.1653,0.1652,0.1887,0.1894,0.1901,0,0,0,0,0,0,0,0,0,0,0,0,0,0.1372,0.1374,0.1527,0.1529,0.1531,0.1651,0.1653,0.1654,0.1655,0.1654,0.1653,0.1651,0.1884,0.1893,0.1902,0,0,0,0,0,0,0,0,0,0,0,0,0,0.1457,0.1375,0.1526,0.155,0.1554,0.1651,0.1653,0.1654,0.1656,0.1654,0.1652,0.1651,0.1882,0.1892,0.1903,0.2004,0,0,0.1936,0.1941,0,0,0,0,0,0,0,0,0.1452,0.1462,0.1544,0.1548,0.1553,0.1641,0.1685,0.1778,0.1656,0.1612,0.1652,0.165,0.1819,0.1835,0.1854,0.2015,0.2025,0.1937,0.1944,0.1949,0.1952,0,0,0,0,0,0,0,0.1446,0.1458,0.1571,0.1547,0.1552,0.1583,0.1592,0.1702,0.1722,0.1615,0.1617,0.164,0.1821,0.1843,0.186,0.2028,0.1937,0.1947,0.1954,0.1958,0.2329,0.2332,0,0,0,0,0,0,0.1439,0.1452,0.1567,0.1575,0.1503,0.1587,0.1597,0.161,0.1718,0.1733,0.1641,0.1639,0.1825,0.1847,0.1868,0.2037,0.1949,0.1959,0.1965,0.2326,0.233,0.2334,0,0,0,0,0,0,0.1435,0.1448,0.1562,0.1521,0.1538,0.1591,0.1606,0.1613,0.1652,0.1737,0.1753,0.1674,0.1825,0.1853,0.1981,0.2045,0.1964,0.1974,0.2322,0.2327,0.2332,0.2349,0,0,0,0,0,0,0.143,0.1445,0.1457,0.152,0.154,0.1665,0.1609,0.1617,0.167,0.1669,0.1772,0.179,0.1825,0.1964,0.1992,0.2058,0.1982,0.2318,0.2324,0.233,0.2344,0.2354,0.2362,0,0,0,0,0,0.1424,0.146,0.1456,0.1471,0.1552,0.1669,0.1685,0.1711,0.1673,0.173,0.1769,0.1787,0.2023,0.1976,0.2008,0.2078,0.2315,0.2322,0.233,0.234,0.2352,0.2362,0,0,0,0,0,0,0.1406,0.1466,0.1463,0.1514,0.1602,0.1672,0.1732,0.173,0.1801,0.1799,0.1838,0.1864,0.1996,0.2046,0.1992,0.2205,0.2171,0.2185,0.2168,0.218,0.2189,0.2158,0.1991,0,0,0,0,0,0.1405,0.1436,0.152,0.1563,0.1621,0.1673,0.1719,0.1743,0.1811,0.1838,0.1902,0.1974,0.2053,0.2118,0.2206,0.2339,0.2293,0.2404,0.2413,0.242,0.2418,0.2389,0.2392,0.2358,0.2358,0.2358,0,0,0.14,0.1445,0.1457,0.1561,0.163,0.1711,0.1699,0.18,0.1847,0.1862,0.1963,0.202,0.2095,0.2221,0.2287,0.2272,0.2403,0.243,0.2435,0.2429,0.2396,0.2399,0.2401,0.2363,0.2362,0.2361,0,0,0.1445,0.1472,0.1532,0.1613,0.1733,0.1765,0.1798,0.1899,0.1938,0.2047,0.2048,0.2141,0.2283,0.2339,0.2379,0.2505,0.2446,0.2539,0.2571,0.2543,0.2543,0.2543,0.2453,0.2444,0.2549,0.2549,0.2549,0,0.1437,0.152,0.1576,0.1676,0.1738,0.1787,0.1877,0.1933,0.2047,0.21,0.2094,0.2267,0.2336,0.2451,0.2475,0.2526,0.2458,0.2515,0.2547,0.2546,0.2546,0.2453,0.2444,0.2551,0.2551,0.255,0.255,0,0.1531,0.1611,0.1678,0.1782,0.1854,0.1959,0.2038,0.2114,0.2145,0.2193,0.2334,0.2409,0.2495,0.2546,0.2544,0.2603,0.2534,0.2546,0.2498,0.2549,0.2449,0.2439,0.2553,0.2553,0.2552,0.2552,0,0,0.1485,0.1695,0.1717,0.1787,0.1922,0.1987,0.2089,0.2206,0.2239,0.2368,0.2424,0.2576,0.2587,0.2632,0.2657,0.265,0.2579,0.2584,0.2582,0.2456,0.2438,0.2386,0.2368,0.2564,0.2564,0.2564,0.2353,0,0.1552,0.1725,0.1808,0.1944,0.2044,0.212,0.2187,0.2282,0.2346,0.2413,0.252,0.2577,0.2625,0.2629,0.2646,0.259,0.2558,0.2631,0.2442,0.2436,0.2353,0.2359,0.226,0.2064,0.2342,0.234,0.2339,0,0.1617,0.1727,0.1882,0.2026,0.2074,0.2124,0.2216,0.2289,0.2396,0.2445,0.2539,0.2576,0.2625,0.2619,0.2575,0.2598,0.2516,0.2472,0.2463,0.2403,0.2367,0.2073,0.2035,0.2321,0.2323,0.2324,0.2325,0,0.1556,0.1766,0.1875,0.1936,0.2102,0.2154,0.2199,0.2299,0.2346,0.2424,0.2424,0.2528,0.2507,0.2485,0.243,0.2461,0.2316,0.2353,0.2238,0.223,0.2109,0.2092,0.229,0.2291,0.2291,0.2292,0.2292,0,0.1603,0.1685,0.1848,0.1917,0.1993,0.21,0.2151,0.2222,0.2282,0.2301,0.24,0.2393,0.2455,0.2408,0.2378,0.2262,0.2274,0.2224,0.2183,0.2112,0.21,0.2314,0.2319,0.2284,0.2285,0.2287,0.2288,0,0.1561,0.1677,0.1796,0.1954,0.1984,0.2021,0.2093,0.2112,0.2165,0.2169,0.2173,0.2241,0.2187,0.2227,0.2149,0.2148,0.2073,0.2021,0.1909,0.1862,0.2008,0.2018,0.187,0.1867,0.1864,0.1862,0.186,0,0.1571,0.1633,0.1781,0.1808,0.1883,0.1937,0.1954,0.204,0.2043,0.2065,0.2042,0.202,0.2012,0.1911,0.1908,0.1843,0.193,0.1687,0.1786,0.1995,0.197,0.1984,0.1997,0.1598,0.1594,0.1591,0.1588,0,0.1573,0.161,0.17,0.1742,0.177,0.1811,0.1833,0.1817,0.188,0.1874,0.1834,0.1826,0.1778,0.1713,0.166,0.1621,0.1716,0.162,0.1833,0.1753,0.1731,0.171,0.1732,0.1559,0.1562,0.1564,0.1566,0.1567,0.1527,0.1564,0.1638,0.1665,0.1679,0.1657,0.164,0.1638,0.1618,0.1575,0.1621,0.1567,0.1592,0.1491,0.1417,0.1382,0.1511,0.1475,0.1487,0.1502,0.1543,0.1522,0.1311,0.1312,0.1313,0.1315,0.1316,0,0.1474,0.1517,0.1541,0.156,0.1506,0.1567,0.1542,0.1477,0.1398,0.1412,0.1378,0.125,0.1221,0.125,0.1172,0.116,0.1168,0.1109,0.1143,0.1173,0.1199,0.1228,0.0909,0.0908,0.0906,0.0905,0,0,0.1451,0.1456,0.147,0.1378,0.1377,0.1295,0.1267,0.1186,0.1171,0.1078,0.1076,0.1149,0.1232,0.1059,0.1039,0.0977,0.1063,0.0928,0.1261,0.1335,0.1359,0.1423,0.1501,0,0,0,0,0]},{"header":{"parameterUnit":"m.s-1","parameterCategory":2,"la1":30.2991,"la2":30.254,"lo1":-89.0895,"lo2":-89.0444,"dy":0.0017,"dx":0.0017,"nx":28,"ny":28,"refTime":"2023-06-18T21:00:00:Z","depth":"2","parameterNumber":3,"parameterNumberName":"V-component_of_CURRENTS"},"data":[0,0,0,0,0,0,0,0,0,0,0,0,0,0,0,0,0,0,0,0,0,0,0,0,0,0,0,0,0,0,0,0,0,0,0,0,0,0,0,0,0,0,0,0,0,0,0,0,0,0,0,0,0,0,0,0,0,0,-0.0133,-0.0136,0,-0.027,-0.0271,-0.0271,-0.029,-0.029,-0.0289,-0.0289,-0.0155,-0.0152,-0.0149,0,0,0,0,0,0,0,0,0,0,0,0,0,0.0022,0.0021,-0.0133,-0.0136,-0.0138,-0.027,-0.0271,-0.0272,-0.029,-0.029,-0.0289,-0.0289,-0.0156,-0.0152,-0.0148,0,0,0,0,0,0,0,0,0,0,0,0,0,-0.0063,0.0021,-0.0133,-0.0171,-0.0176,-0.0269,-0.0271,-0.0272,-0.029,-0.029,-0.0289,-0.0289,-0.0157,-0.0153,-0.0148,-0.013,0,0,-0.0133,-0.0131,0,0,0,0,0,0,0,0,-0.0058,-0.0068,-0.0163,-0.0168,-0.0175,-0.0271,-0.0168,-0.0214,-0.029,-0.0237,-0.0289,-0.0288,-0.0175,-0.0169,-0.0186,-0.0124,-0.0118,-0.0133,-0.013,-0.0128,-0.0126,0,0,0,0,0,0,0,-0.0052,-0.0063,-0.0177,-0.0166,-0.0173,-0.0212,-0.0221,-0.0177,-0.0195,-0.0241,-0.0245,-0.0276,-0.0175,-0.0191,-0.0182,-0.0116,-0.0133,-0.0129,-0.0126,-0.0124,0.0089,0.0092,0,0,0,0,0,0,-0.0051,-0.0057,-0.0173,-0.0183,-0.0125,-0.0216,-0.0226,-0.0233,-0.0202,-0.0202,-0.0277,-0.0277,-0.0199,-0.0188,-0.0177,-0.006,-0.0128,-0.0123,-0.0121,0.0086,0.009,0.0093,0,0,0,0,0,0,-0.0047,-0.0059,-0.0168,-0.0132,-0.015,-0.0219,-0.0227,-0.0236,-0.025,-0.0233,-0.0225,-0.0282,-0.0199,-0.0184,-0.0099,-0.0058,-0.0121,-0.0117,0.0083,0.0087,0.0091,0.0115,0,0,0,0,0,0,-0.0041,-0.0056,-0.0056,-0.0131,-0.0152,-0.0207,-0.0229,-0.0239,-0.0275,-0.0276,-0.0235,-0.0223,-0.0197,-0.0106,-0.0094,-0.0053,-0.0113,0.008,0.0085,0.009,0.0111,0.012,0.0127,0,0,0,0,0,-0.0034,-0.0047,-0.0054,-0.0069,-0.015,-0.0208,-0.022,-0.0262,-0.0276,-0.0273,-0.0225,-0.0224,-0.0065,-0.01,-0.0087,-0.0043,0.0077,0.0083,0.009,0.0107,0.0118,0.0127,0,0,0,0,0,0,0.0014,-0.0053,-0.0062,-0.0094,-0.0137,-0.0214,-0.0236,-0.0262,-0.0233,-0.0221,-0.0192,-0.0174,-0.0084,-0.0061,-0.0102,0.0038,0.0008,0.0017,0.0017,0.0027,0.0035,0.0047,-0.0109,0,0,0,0,0,0.0026,0.0008,-0.0059,-0.0081,-0.0105,-0.0165,-0.0196,-0.0219,-0.0221,-0.0213,-0.0175,-0.0118,-0.0052,-0.0012,0.0045,0.0117,0.0098,0.0158,0.0166,0.0173,0.0195,0.019,0.0198,0.0113,0.0113,0.0113,0,0,0.0036,-0.0005,-0.0015,-0.0071,-0.0111,-0.0117,-0.0178,-0.022,-0.0188,-0.0194,-0.0115,-0.0089,-0.0025,0.0062,0.0104,0.0088,0.0184,0.0181,0.0185,0.0205,0.0197,0.0205,0.0211,0.0117,0.0117,0.0116,0,0,0.0037,0.0016,0.0001,-0.0022,-0.0082,-0.0098,-0.0105,-0.0154,-0.0136,-0.0078,-0.006,-0.0001,0.0085,0.0141,0.0181,0.0272,0.0225,0.0282,0.0335,0.0329,0.0334,0.0339,0.0296,0.0297,0.0287,0.0287,0.0287,0,0.0051,0.0038,-0.0013,-0.0028,-0.0029,-0.0078,-0.0066,-0.0057,-0.0056,-0.0013,-0.0033,0.0093,0.0133,0.0247,0.0277,0.0291,0.0254,0.0283,0.0334,0.0339,0.0344,0.0299,0.0299,0.0289,0.0289,0.0289,0.0289,0,0.0049,0.0049,0.0035,0.0033,0.003,0.0026,0.0033,0.0066,0.0083,0.0099,0.0196,0.0229,0.0304,0.0319,0.0329,0.0397,0.0346,0.0334,0.0295,0.0353,0.0303,0.0303,0.0292,0.0291,0.0291,0.029,0,0,0.0061,0.0042,0.0043,0.0074,0.0071,0.0076,0.015,0.0208,0.0267,0.0289,0.0361,0.0454,0.0435,0.0479,0.0477,0.0472,0.0456,0.0413,0.0411,0.0345,0.0398,0.0377,0.0374,0.0427,0.0428,0.0429,0.0337,0,0.0084,0.0094,0.0087,0.0153,0.0172,0.0193,0.0271,0.0328,0.0372,0.0435,0.0468,0.053,0.0508,0.0516,0.0519,0.0479,0.0463,0.0481,0.0376,0.0374,0.0327,0.0377,0.0345,0.0262,0.0337,0.0337,0.0337,0,0.0093,0.011,0.0159,0.024,0.0253,0.0301,0.0426,0.0482,0.0564,0.0586,0.0634,0.0633,0.0669,0.0607,0.0576,0.0574,0.0501,0.0448,0.0442,0.0422,0.0355,0.0228,0.0259,0.0336,0.0336,0.0337,0.0337,0,0.0135,0.0175,0.0234,0.0254,0.0326,0.0387,0.0446,0.0535,0.0597,0.0661,0.0675,0.0721,0.0711,0.0659,0.0573,0.0558,0.049,0.0458,0.0371,0.0366,0.0326,0.0317,0.0425,0.0425,0.0425,0.0426,0.0426,0,0.0169,0.0219,0.0261,0.0293,0.0408,0.0435,0.0554,0.0611,0.0673,0.0739,0.074,0.0761,0.0714,0.0672,0.059,0.049,0.0509,0.0396,0.0358,0.0333,0.0326,0.0391,0.0389,0.0422,0.0423,0.0424,0.0424,0,0.0194,0.0211,0.0295,0.0384,0.0419,0.0504,0.0605,0.0679,0.0711,0.0778,0.0786,0.0785,0.0724,0.0665,0.0566,0.0503,0.0414,0.0365,0.0325,0.0286,0.0278,0.0278,0.0262,0.026,0.0259,0.0259,0.0258,0,0.0211,0.0241,0.0353,0.0416,0.0459,0.0566,0.0635,0.07,0.0757,0.0789,0.0813,0.0771,0.0759,0.0616,0.049,0.0359,0.037,0.0245,0.0244,0.0306,0.027,0.0271,0.0273,0.0173,0.0172,0.0171,0.017,0,0.0262,0.0292,0.0361,0.0465,0.0555,0.0654,0.0741,0.0785,0.0841,0.0874,0.0887,0.087,0.0718,0.0583,0.0409,0.0314,0.0275,0.0218,0.0301,0.0235,0.022,0.0185,0.019,0.016,0.0161,0.0162,0.0162,0.0163,0.0305,0.037,0.044,0.0547,0.0634,0.072,0.08,0.0853,0.0925,0.0964,0.0935,0.0905,0.0732,0.0505,0.0324,0.0156,0.0186,0.0131,0.0135,0.014,0.0163,0.0149,0.0077,0.0077,0.0077,0.0078,0.0078,0,0.0366,0.0425,0.0517,0.0637,0.0708,0.0749,0.0858,0.0911,0.0974,0.101,0.1016,0.0843,0.0656,0.0478,0.0202,0.0043,0.0025,-0.0,0.0011,0.0021,0.003,0.0049,-0.0069,-0.007,-0.0071,-0.0071,0,0,0.0406,0.0494,0.0535,0.0666,0.0735,0.0834,0.0895,0.0963,0.1018,0.1048,0.1042,0.0979,0.0745,0.0518,0.0271,0.0112,0.0114,0.0076,0.0209,0.0261,0.0272,0.0115,0.0156,0,0,0,0,0]}],[{"header":{"parameterUnit":"m.s-1","parameterCategory":2,"la1":30.2991,"la2":30.254,"lo1":-89.0895,"lo2":-89.0444,"dy":0.0017,"dx":0.0017,"nx":28,"ny":28,"refTime":"2023-06-18T21:00:00:Z","depth":"4","parameterNumber":2,"parameterNumberName":"U-component_of_CURRENTS"},"data":[0,0,0,0,0,0,0,0,0,0,0,0,0,0,0,0,0,0,0,0,0,0,0,0,0,0,0,0,0,0,0,0,0,0,0,0,0,0,0,0,0,0,0,0,0,0,0,0,0,0,0,0,0,0,0,0,0,0,-0.0288,-0.0293,0,-0.0607,-0.0609,-0.0611,-0.068,-0.068,-0.068,-0.0679,-0.0837,-0.0842,-0.0846,0,0,0,0,0,0,0,0,0,0,0,0,0,0.0188,0.0182,-0.0287,-0.0293,-0.0299,-0.0607,-0.0609,-0.0612,-0.068,-0.068,-0.068,-0.0679,-0.0836,-0.0841,-0.0846,0,0,0,0,0,0,0,0,0,0,0,0,0,-0.0043,0.018,-0.0286,-0.0386,-0.04,-0.0607,-0.0609,-0.0612,-0.0681,-0.068,-0.0679,-0.0679,-0.0834,-0.084,-0.0847,-0.09,0,0,-0.0868,-0.0871,0,0,0,0,0,0,0,0,-0.003,-0.0057,-0.0366,-0.038,-0.0396,-0.0622,-0.0501,-0.0708,-0.0681,-0.0551,-0.0679,-0.0679,-0.0765,-0.0777,-0.081,-0.0907,-0.0914,-0.0869,-0.0873,-0.0876,-0.0878,0,0,0,0,0,0,0,-0.0013,-0.0045,-0.0392,-0.0373,-0.0392,-0.0444,-0.0472,-0.054,-0.0637,-0.0563,-0.0574,-0.0644,-0.0769,-0.0803,-0.0814,-0.0917,-0.0868,-0.0874,-0.0879,-0.0881,-0.0872,-0.0868,0,0,0,0,0,0,-0.0015,-0.003,-0.0383,-0.0404,-0.0232,-0.0454,-0.0485,-0.0533,-0.0641,-0.0664,-0.0644,-0.0646,-0.0792,-0.0806,-0.082,-0.0744,-0.0876,-0.0882,-0.0886,-0.0876,-0.0871,-0.0866,0,0,0,0,0,0,-0.0003,-0.0042,-0.037,-0.0242,-0.029,-0.0464,-0.0516,-0.054,-0.0618,-0.0709,-0.0724,-0.0705,-0.0792,-0.0811,-0.0895,-0.0756,-0.0885,-0.0891,-0.0881,-0.0875,-0.0869,-0.0685,0,0,0,0,0,0,0.0013,-0.0035,-0.0042,-0.0242,-0.0299,-0.0531,-0.052,-0.0547,-0.067,-0.0676,-0.0766,-0.0777,-0.0793,-0.0884,-0.0901,-0.0768,-0.0897,-0.0887,-0.0878,-0.0871,-0.0697,-0.0674,-0.0653,0,0,0,0,0,0.0031,-0.0095,-0.0039,-0.0083,-0.031,-0.0537,-0.0569,-0.0675,-0.0674,-0.0733,-0.0764,-0.0776,-0.0838,-0.0892,-0.0911,-0.0775,-0.0891,-0.0881,-0.0871,-0.0707,-0.0678,-0.0654,0,0,0,0,0,0,0.0073,-0.012,-0.0064,-0.0236,-0.0352,-0.0557,-0.0663,-0.0701,-0.0776,-0.0782,-0.0808,-0.0824,-0.0814,-0.0851,-0.0906,-0.0739,-0.0832,-0.0826,-0.0699,-0.0673,-0.0652,-0.0605,-0.0902,0,0,0,0,0,0.0101,0.001,-0.0166,-0.0266,-0.0358,-0.0479,-0.0576,-0.0649,-0.0767,-0.0802,-0.0811,-0.0807,-0.0783,-0.0787,-0.08,-0.0781,-0.0788,-0.0675,-0.0653,-0.0635,-0.0605,-0.0426,-0.0384,-0.0834,-0.0834,-0.0835,0,0,0.0119,-0.0013,-0.0044,-0.0252,-0.0355,-0.0459,-0.0536,-0.0734,-0.0721,-0.0807,-0.0774,-0.0777,-0.0773,-0.0705,-0.0694,-0.0724,-0.0542,-0.0623,-0.0607,-0.0586,-0.0411,-0.0367,-0.0328,-0.0828,-0.0829,-0.083,0,0,0.0016,-0.0038,-0.0163,-0.0261,-0.046,-0.0513,-0.0572,-0.0739,-0.0724,-0.0721,-0.072,-0.0662,-0.0649,-0.0578,-0.0547,-0.043,-0.045,-0.0398,-0.0234,-0.0059,-0.002,0.0015,-0.0075,-0.0049,-0.0361,-0.0361,-0.036,0,0.0063,-0.01,-0.023,-0.0381,-0.0432,-0.0526,-0.0622,-0.0632,-0.0745,-0.0693,-0.0681,-0.0532,-0.0548,-0.0408,-0.0321,-0.0371,-0.0363,-0.0338,-0.0027,0.0008,0.0041,-0.0059,-0.0032,-0.0351,-0.0352,-0.0353,-0.0354,0,-0.0133,-0.0216,-0.0336,-0.0445,-0.0512,-0.065,-0.0674,-0.0652,-0.0582,-0.0542,-0.0393,-0.0352,-0.0233,-0.0187,-0.0211,0.0034,-0.008,-0.0041,-0.0092,0.0098,-0.0023,0.0002,-0.0336,-0.034,-0.0343,-0.0345,0,0,-0.009,-0.0399,-0.0396,-0.042,-0.0553,-0.0627,-0.0567,-0.0538,-0.0401,-0.0355,-0.0176,-0.0038,0.003,0.0073,0.0095,0.026,0.0454,0.0239,0.0243,0.0145,0.0676,0.0564,0.0576,0.0588,0.0597,0.0604,0.0447,0,-0.015,-0.0418,-0.0501,-0.0547,-0.067,-0.0632,-0.0534,-0.0476,-0.0306,-0.0142,-0.0045,0.0136,0.0121,0.0251,0.0406,0.0428,0.0551,0.0481,0.0509,0.0504,0.039,0.0618,0.0632,0.0464,0.047,0.0473,0.0476,0,-0.0245,-0.042,-0.0578,-0.0583,-0.061,-0.0558,-0.0326,-0.0245,-0.0047,0.0111,0.0309,0.0358,0.0518,0.056,0.0722,0.0685,0.0724,0.0744,0.0741,0.0612,0.045,0.0271,0.0519,0.0515,0.0512,0.0509,0.0507,0,-0.0193,-0.0373,-0.0477,-0.0511,-0.059,-0.0486,-0.0376,-0.0156,-0.0027,0.0319,0.046,0.0634,0.0742,0.0869,0.0848,0.085,0.0984,0.0977,0.0873,0.0849,0.0899,0.0865,0.1197,0.1197,0.1197,0.1198,0.1198,0,-0.0247,-0.0262,-0.0436,-0.0517,-0.0412,-0.0419,-0.0163,0.003,0.024,0.0408,0.0615,0.0767,0.0879,0.0896,0.09,0.0902,0.1027,0.0933,0.0892,0.095,0.0926,0.0904,0.0872,0.1192,0.1193,0.1194,0.1195,0,-0.019,-0.0341,-0.041,-0.048,-0.044,-0.0306,-0.0088,0.0106,0.0344,0.0578,0.0664,0.0841,0.0928,0.0893,0.1018,0.0957,0.0982,0.0965,0.0853,0.0796,0.0672,0.0651,0.083,0.0827,0.0824,0.0822,0.082,0,-0.0204,-0.031,-0.0375,-0.0318,-0.0313,-0.0143,-0.0014,0.0194,0.038,0.061,0.0684,0.0791,0.0893,0.0873,0.0917,0.0849,0.0886,0.0824,0.0947,0.0738,0.0677,0.0661,0.0644,0.0815,0.0815,0.0814,0.0813,0,-0.0201,-0.0215,-0.0267,-0.0248,-0.01,0.0007,0.0202,0.0271,0.0482,0.0629,0.0751,0.0776,0.0825,0.0834,0.0788,0.0767,0.0838,0.0797,0.0804,0.0919,0.0722,0.0661,0.0648,0.0804,0.0805,0.0806,0.0806,0,-0.0057,-0.0059,-0.0161,-0.0054,0.0063,0.0122,0.0214,0.0346,0.0454,0.0635,0.0644,0.0753,0.0815,0.0788,0.0745,0.0709,0.0727,0.0724,0.0735,0.0746,0.0806,0.0549,0.0598,0,0,0,0,0,0.0044,0.0009,0.0038,0.0096,0.0187,0.0205,0.032,0.0379,0.0485,0.0565,0.0591,0.0644,0.0649,0.0687,0.0633,0.0684,0.0701,0.0618,0.0696,0.0751,0.0762,0.0847,0,0,0,0,0,0,0.0113,0.011,0.0035,0.0173,0.0214,0.0285,0.0329,0.0385,0.0424,0.052,0.0529,0.0604,0.061,0.0664,0.0623,0.0624,0.0659,0.0651,0.0649,0.0745,0.0755,0.0764,0.0855,0,0,0,0,0]},{"header":{"parameterUnit":"m.s-1","parameterCategory":2,"la1":30.2991,"la2":30.254,"lo1":-89.0895,"lo2":-89.0444,"dy":0.0017,"dx":0.0017,"nx":28,"ny":28,"refTime":"2023-06-18T21:00:00:Z","depth":"4","parameterNumber":3,"parameterNumberName":"V-component_of_CURRENTS"},"data":[0,0,0,0,0,0,0,0,0,0,0,0,0,0,0,0,0,0,0,0,0,0,0,0,0,0,0,0,0,0,0,0,0,0,0,0,0,0,0,0,0,0,0,0,0,0,0,0,0,0,0,0,0,0,0,0,0,0,0.0002,0.0003,0,0.0021,0.0021,0.0021,0.0018,0.0019,0.0019,0.0019,-0.0079,-0.0082,-0.0085,0,0,0,0,0,0,0,0,0,0,0,0,0,-0.0064,-0.0063,0.0002,0.0003,0.0004,0.0021,0.0021,0.002,0.0018,0.0019,0.0019,0.0019,-0.0079,-0.0082,-0.0085,0,0,0,0,0,0,0,0,0,0,0,0,0,-0.0044,-0.0062,0.0002,0.0009,0.001,0.0021,0.0021,0.002,0.0018,0.0019,0.0019,0.0019,-0.0077,-0.0082,-0.0086,-0.0118,0,0,-0.0099,-0.01,0,0,0,0,0,0,0,0,-0.0045,-0.0043,0.0007,0.0009,0.001,0.0023,-0.0038,-0.003,0.0018,0.0009,0.0019,0.0019,-0.0053,-0.0059,-0.0063,-0.0123,-0.0127,-0.0099,-0.0102,-0.0103,-0.0105,0,0,0,0,0,0,0,-0.0047,-0.0044,0.0004,0.0008,0.001,0.0002,0.0004,-0.0037,-0.003,0.001,0.0011,0.0022,-0.0054,-0.0058,-0.0065,-0.0129,-0.0099,-0.0103,-0.0105,-0.0107,-0.0238,-0.0238,0,0,0,0,0,0,-0.0036,-0.0045,0.0004,0.0005,-0.0011,0.0003,0.0006,0.0014,-0.0027,-0.0031,0.0022,0.0022,-0.0051,-0.006,-0.0069,-0.0097,-0.0103,-0.0107,-0.011,-0.0237,-0.0238,-0.0239,0,0,0,0,0,0,-0.0038,-0.0032,0.0003,-0.0015,-0.001,0.0005,0.0013,0.0014,0.0026,-0.0016,-0.0023,0.0036,-0.0051,-0.0063,-0.0085,-0.0102,-0.0109,-0.0113,-0.0236,-0.0237,-0.0238,-0.0163,0,0,0,0,0,0,-0.004,-0.0033,-0.0023,-0.0014,-0.0008,0.0034,0.0013,0.0014,0.0034,0.0035,-0.0007,-0.0016,-0.0052,-0.0079,-0.009,-0.0108,-0.0116,-0.0234,-0.0236,-0.0238,-0.0164,-0.0162,-0.0159,0,0,0,0,0,-0.0043,-0.0026,-0.0023,-0.0016,0.0005,0.0036,0.0038,0.0045,0.0035,0.0053,0.002,-0.0014,-0.0099,-0.0081,-0.0095,-0.0114,-0.0233,-0.0236,-0.0238,-0.0165,-0.0162,-0.0159,0,0,0,0,0,0,-0.0049,-0.0024,-0.002,0.0003,0.003,0.0039,0.0054,0.0056,0.0044,0.005,-0.001,-0.0021,-0.006,-0.0095,-0.0074,-0.0162,-0.018,-0.0184,-0.0121,-0.0118,-0.0116,-0.0078,-0.012,0,0,0,0,0,-0.0045,-0.0027,-0.0,0.002,0.0035,0.0045,0.0057,0.0077,0.0071,0.0068,0.0034,-0.0017,-0.0083,-0.01,-0.0152,-0.018,-0.019,-0.021,-0.0207,-0.0205,-0.0186,-0.0168,-0.0161,-0.0246,-0.0246,-0.0246,0,0,-0.0045,-0.0025,-0.0017,0.002,0.0034,0.0063,0.0052,0.0098,0.0104,0.0056,0.0044,-0.0007,-0.0092,-0.0131,-0.0153,-0.0154,-0.0198,-0.0207,-0.0204,-0.0187,-0.0169,-0.016,-0.0152,-0.0247,-0.0247,-0.0247,0,0,-0.0009,-0.0013,0.0029,0.0053,0.0105,0.0098,0.0116,0.0143,0.0135,0.0136,0.0072,0.0022,-0.004,-0.0113,-0.0162,-0.018,-0.0192,-0.02,-0.0144,-0.0127,-0.0119,-0.0111,-0.0151,-0.0148,-0.0188,-0.0188,-0.0188,0,-0.0004,0.0047,0.0047,0.0101,0.011,0.0113,0.0154,0.0144,0.0159,0.0143,0.0147,0.0026,-0.0044,-0.0134,-0.0136,-0.0176,-0.0159,-0.0144,-0.0118,-0.0111,-0.0104,-0.0147,-0.0144,-0.0185,-0.0185,-0.0186,-0.0186,0,0.0063,0.0113,0.0137,0.0182,0.0187,0.0231,0.0218,0.0216,0.0199,0.0193,0.0138,0.0062,-0.0008,-0.0054,-0.0094,-0.0112,-0.0117,-0.0118,-0.011,-0.0089,-0.0139,-0.0137,-0.018,-0.0181,-0.0182,-0.0183,0,0,0.0053,0.0164,0.0174,0.0214,0.0237,0.0248,0.023,0.0216,0.0211,0.0202,0.0179,0.0066,0.0056,-0.0001,-0.0069,-0.0052,-0.0024,-0.0033,-0.0034,-0.0048,0.0013,-0.0012,-0.0014,0.0028,0.0029,0.0031,-0.0053,0,0.0109,0.0225,0.0242,0.0305,0.0351,0.0317,0.0295,0.0278,0.0253,0.0234,0.0149,0.0114,0.0063,0.0049,0.005,-0.0007,-0.0005,-0.0002,-0.0028,-0.0031,-0.0031,-0.0007,0.0036,-0.0052,-0.0051,-0.0051,-0.0051,0,0.0154,0.0234,0.0335,0.0375,0.0384,0.0408,0.0355,0.0352,0.0305,0.0289,0.0251,0.0207,0.0148,0.0143,0.008,0.011,0.0078,0.0047,0.0044,0.0006,-0.0049,-0.0072,-0.0047,-0.0048,-0.0048,-0.0048,-0.0048,0,0.0139,0.0262,0.0341,0.0366,0.0428,0.0435,0.0427,0.0389,0.0364,0.0351,0.0341,0.0284,0.0244,0.023,0.0129,0.0147,0.0091,0.0083,0.0009,0.0003,0.0019,0.0012,0.0077,0.0077,0.0078,0.0078,0.0078,0,0.0165,0.023,0.0367,0.0419,0.0475,0.0489,0.0509,0.0487,0.0458,0.0439,0.0397,0.0356,0.0294,0.0227,0.0168,0.008,0.0106,0.0028,0.0001,0.0041,0.0038,0.0018,0.0012,0.0075,0.0075,0.0076,0.0077,0,0.0157,0.0255,0.0352,0.0458,0.0495,0.0531,0.0551,0.0549,0.054,0.051,0.0508,0.0418,0.0345,0.0236,0.0169,0.0104,0.0036,-0.0004,0.0006,-0.0022,-0.0078,-0.008,-0.0077,-0.0078,-0.0079,-0.008,-0.0081,0,0.0169,0.0241,0.038,0.043,0.0502,0.0568,0.0593,0.0593,0.0584,0.0532,0.0506,0.0431,0.036,0.0215,0.0129,-0.0005,-0.0021,-0.0062,-0.0022,-0.0058,-0.0084,-0.0084,-0.0085,-0.0082,-0.0083,-0.0083,-0.0083,0,0.0189,0.0248,0.0333,0.0442,0.0512,0.0566,0.061,0.0602,0.0591,0.0576,0.0508,0.0424,0.0316,0.0207,0.0095,0.0003,-0.0024,-0.0071,-0.007,-0.0033,-0.0064,-0.0089,-0.0088,-0.0086,-0.0086,-0.0086,-0.0085,0,0.0194,0.0239,0.0347,0.0437,0.0502,0.0547,0.0575,0.0581,0.0579,0.0533,0.0512,0.0404,0.0351,0.0207,0.0106,0.0014,-0.0,-0.0006,-0.0007,-0.0005,0.0048,0.0022,0.0017,0,0,0,0,0,0.0203,0.0254,0.0319,0.0422,0.0465,0.0516,0.0567,0.0586,0.0595,0.0551,0.0532,0.0435,0.0283,0.0216,0.012,0.0079,-0.0025,-0.0035,-0.0034,-0.0104,-0.0101,-0.0051,0,0,0,0,0,0,0.0216,0.0281,0.0322,0.0387,0.0433,0.0496,0.053,0.0545,0.0528,0.052,0.044,0.0417,0.0266,0.033,0.0116,0.0087,0.0079,-0.0103,-0.0104,-0.0107,-0.0103,-0.01,-0.0048,0,0,0,0,0]}]]